Hourly Data Report for June 29, 2021

BORDEN AWOS
ONTARIO
Current Station Operator: DND

44°16'20.000" N
79°54'42.000" W
222.50 m
611B002
71534
YBN

Download Data

Hourly Data (June 2021)
Hourly Data Report for June 29, 2021
TIME
LST
Temp Definition
°C
Dew Point Definition
°C
Rel Hum Definition
%
Precip. Amount Definition
mm

Wind Dir Definition
10's deg

Wind Spd Definition
km/h
Visibility Definition
km
Stn Press Definition
kPa
Hmdx Definition


Wind Chill Definition


Weather Definition


00:00 18.3 17.6 96     0 14.5 99.54     LegendNANA
01:00 18.9 18.0 95     0 14.5 99.54     LegendNANA
02:00 19.1 18.5 96     0 14.5 99.54     Rain
03:00 19.1 18.5 96     0 14.5 99.50     LegendNANA
04:00 19.5 18.9 96     0 14.5 99.54     LegendNANA
05:00 19.6 19.0 96   14 7 14.5 99.54     LegendNANA
06:00 20.4 19.5 95   16 4 14.5 99.51 28   Rain
07:00 22.3 20.5 90   16 7 14.5 99.49 30   LegendNANA
08:00 24.7 21.4 82   18 6 14.5 99.46 33   LegendNANA
09:00 27.1 21.9 73   25 9 14.5 99.44 36   LegendNANA
10:00 28.6 21.1 64   29 15 14.5 99.41 37   LegendNANA
11:00 29.1 21.2 63   28 17 14.5 99.41 38   LegendNANA
12:00 31.2 21.6 57   25 20 14.5 99.37 40   LegendNANA
13:00 31.1 21.6 57   29 13 14.5 99.31 40   LegendNANA
14:00 30.0 21.8 62   32 9 14.5 99.23 39   LegendNANA
15:00 31.7 21.5 55   25 13 14.5 99.19 41   LegendNANA
16:00 30.7 20.8 56   27 13 14.5 99.19 39   LegendNANA
17:00 28.8 22.1 67   33 9 14.5 99.16 38   LegendNANA
18:00 24.5 20.8 80   34 6 14.5 99.15 33   Rain
19:00 23.0 22.2 95   13 9 14.5 99.17 33   LegendNANA
20:00 22.4 21.6 95   16 4 14.5 99.15 31   LegendNANA
21:00 22.2 21.6 96   16 6 14.5 99.13 31   LegendNANA
22:00 22.3 21.2 94   21 11 14.5 99.15 31   LegendNANA
23:00 21.6 20.2 92   21 11 14.5 99.13 29   LegendNANA

Notes on Data Quality.

Legend

  • E = Estimated
  • M = Missing
  • NA = Not Available*
  • [empty] = Indicates an unobserved value
Date modified: